Time,TemperatureF,DewpointF,PressureIn,WindDirection,WindDirectionDegrees,WindSpeedMPH,WindSpeedGustMPH,Humidity,HourlyPrecipIn,Conditions,Clouds,dailyrainin,SoftwareType,DateUTC
2013-05-14 00:01:00,65.0,56.0,29.91,SSW,207,0.0,-999.0,73,-99.99,,,-99.99,,2013-05-14 05:01:00,
2013-05-14 00:12:00,65.0,56.0,29.91,SSW,207,0.0,-999.0,73,-99.99,,,-99.99,,2013-05-14 05:12:00,
2013-05-14 00:22:00,65.0,56.0,29.91,SSW,207,1.0,-999.0,73,-99.99,,,-99.99,,2013-05-14 05:22:00,
2013-05-14 00:32:00,65.0,56.0,29.91,SSW,207,1.0,-999.0,73,-99.99,,,-99.99,,2013-05-14 05:32:00,
2013-05-14 00:42:00,64.0,55.0,29.91,SSW,207,0.0,-999.0,73,-99.99,,,-99.99,,2013-05-14 05:42:00,
2013-05-14 00:52:00,64.0,55.0,29.91,SSW,207,0.0,-999.0,73,-99.99,,,-99.99,,2013-05-14 05:52:00,
2013-05-14 01:01:00,64.0,56.0,29.91,SSW,207,1.0,-999.0,74,-99.99,,,-99.99,,2013-05-14 06:01:00,
2013-05-14 01:12:00,64.0,56.0,29.91,SSW,207,1.0,-999.0,74,-99.99,,,-99.99,,2013-05-14 06:12:00,
2013-05-14 01:22:00,64.0,56.0,29.91,SSW,207,1.0,-999.0,74,-99.99,,,-99.99,,2013-05-14 06:22:00,
2013-05-14 01:32:00,64.0,56.0,29.90,SSW,207,1.0,-999.0,74,-99.99,,,-99.99,,2013-05-14 06:32:00,
2013-05-14 01:42:00,64.0,56.0,29.90,SSW,207,1.0,-999.0,74,-99.99,,,-99.99,,2013-05-14 06:42:00,
2013-05-14 01:52:00,64.0,55.0,29.90,SSW,207,1.0,-999.0,73,-99.99,,,-99.99,,2013-05-14 06:52:00,
2013-05-14 02:02:00,63.0,54.0,29.89,SSW,207,1.0,-999.0,73,-99.99,,,-99.99,,2013-05-14 07:02:00,
2013-05-14 02:11:00,63.0,54.0,29.89,SSW,207,1.0,-999.0,73,-99.99,,,-99.99,,2013-05-14 07:11:00,
2013-05-14 02:21:00,63.0,54.0,29.89,SSW,207,0.0,-999.0,73,-99.99,,,-99.99,,2013-05-14 07:21:00,
2013-05-14 02:31:00,63.0,53.0,29.89,SSW,207,1.0,-999.0,71,-99.99,,,-99.99,,2013-05-14 07:31:00,
2013-05-14 02:41:00,64.0,54.0,29.89,SSW,207,1.0,-999.0,69,-99.99,,,-99.99,,2013-05-14 07:41:00,
2013-05-14 02:52:00,64.0,54.0,29.89,SSW,207,1.0,-999.0,69,-99.99,,,-99.99,,2013-05-14 07:52:00,
2013-05-14 03:02:00,64.0,53.0,29.88,SSW,207,0.0,-999.0,68,-99.99,,,-99.99,,2013-05-14 08:02:00,
2013-05-14 03:11:00,64.0,53.0,29.88,SSW,207,0.0,-999.0,68,-99.99,,,-99.99,,2013-05-14 08:11:00,
2013-05-14 03:21:00,64.0,53.0,29.88,SSW,207,1.0,-999.0,68,-99.99,,,-99.99,,2013-05-14 08:21:00,
2013-05-14 03:31:00,64.0,53.0,29.88,SSW,207,1.0,-999.0,67,-99.99,,,-99.99,,2013-05-14 08:31:00,
2013-05-14 03:41:00,64.0,52.0,29.88,SSW,205,1.0,-999.0,66,-99.99,,,-99.99,,2013-05-14 08:41:00,
2013-05-14 03:52:00,64.0,52.0,29.88,SSW,205,1.0,-999.0,66,-99.99,,,-99.99,,2013-05-14 08:52:00,
2013-05-14 04:02:00,63.0,52.0,29.88,SSW,207,1.0,-999.0,67,-99.99,,,-99.99,,2013-05-14 09:02:00,
2013-05-14 04:11:00,63.0,52.0,29.88,SSW,207,1.0,-999.0,67,-99.99,,,-99.99,,2013-05-14 09:11:00,
2013-05-14 04:22:00,63.0,52.0,29.88,SSW,207,1.0,-999.0,67,-99.99,,,-99.99,,2013-05-14 09:22:00,
2013-05-14 04:32:00,62.0,51.0,29.88,SSW,207,0.0,-999.0,68,-99.99,,,-99.99,,2013-05-14 09:32:00,
2013-05-14 04:44:00,62.0,52.0,29.88,SSW,207,0.0,-999.0,69,-99.99,,,-99.99,,2013-05-14 09:44:00,
2013-05-14 04:54:00,62.0,52.0,29.88,SSW,207,0.0,-999.0,69,-99.99,,,-99.99,,2013-05-14 09:54:00,
2013-05-14 05:04:00,61.0,51.0,29.88,SSW,207,1.0,-999.0,69,-99.99,,,-99.99,,2013-05-14 10:04:00,
2013-05-14 05:14:00,61.0,51.0,29.88,SSW,207,1.0,-999.0,69,-99.99,,,-99.99,,2013-05-14 10:14:00,
2013-05-14 05:25:00,61.0,51.0,29.88,SSW,207,0.0,-999.0,69,-99.99,,,-99.99,,2013-05-14 10:25:00,
2013-05-14 05:33:00,61.0,51.0,29.88,SSW,207,0.0,-999.0,69,-99.99,,,-99.99,,2013-05-14 10:33:00,
2013-05-14 05:42:00,61.0,51.0,29.88,SSW,207,0.0,-999.0,69,-99.99,,,-99.99,,2013-05-14 10:42:00,
2013-05-14 05:52:00,61.0,51.0,29.89,SSW,211,1.0,-999.0,69,-99.99,,,-99.99,,2013-05-14 10:52:00,
2013-05-14 06:02:00,62.0,51.0,29.89,SSW,213,1.0,-999.0,68,-99.99,,,-99.99,,2013-05-14 11:02:00,
2013-05-14 06:11:00,62.0,51.0,29.89,SSW,213,1.0,-999.0,68,-99.99,,,-99.99,,2013-05-14 11:11:00,
2013-05-14 06:21:00,61.0,50.0,29.89,SW,217,1.0,-999.0,68,-99.99,,,-99.99,,2013-05-14 11:21:00,
2013-05-14 06:32:00,61.0,50.0,29.89,SW,216,1.0,-999.0,68,-99.99,,,-99.99,,2013-05-14 11:32:00,
2013-05-14 06:43:00,61.0,50.0,29.89,SW,216,1.0,-999.0,68,-99.99,,,-99.99,,2013-05-14 11:43:00,
2013-05-14 06:53:00,61.0,51.0,29.90,SSW,198,1.0,-999.0,69,-99.99,,,-99.99,,2013-05-14 11:53:00,
2013-05-14 07:02:00,61.0,50.0,29.90,SSW,204,1.0,-999.0,68,-99.99,,,-99.99,,2013-05-14 12:02:00,
2013-05-14 07:12:00,61.0,50.0,29.90,SSW,204,1.0,-999.0,68,-99.99,,,-99.99,,2013-05-14 12:12:00,
2013-05-14 07:21:00,62.0,51.0,29.90,SSW,211,2.0,-999.0,67,-99.99,,,-99.99,,2013-05-14 12:21:00,
2013-05-14 07:32:00,63.0,52.0,29.90,SSW,211,2.0,-999.0,67,-99.99,,,-99.99,,2013-05-14 12:32:00,
2013-05-14 07:42:00,63.0,52.0,29.90,SSW,211,2.0,-999.0,67,-99.99,,,-99.99,,2013-05-14 12:42:00,
2013-05-14 07:52:00,64.0,52.0,29.90,SSW,203,3.0,-999.0,65,-99.99,,,-99.99,,2013-05-14 12:52:00,
2013-05-14 08:01:00,65.0,53.0,29.91,South,178,4.0,-999.0,64,-99.99,,,-99.99,,2013-05-14 13:01:00,
2013-05-14 08:11:00,65.0,53.0,29.91,South,178,4.0,-999.0,64,-99.99,,,-99.99,,2013-05-14 13:11:00,
2013-05-14 08:22:00,66.0,53.0,29.91,SW,215,5.0,-999.0,62,-99.99,,,-99.99,,2013-05-14 13:22:00,
2013-05-14 08:32:00,67.0,53.0,29.91,WSW,244,4.0,-999.0,60,-99.99,,,-99.99,,2013-05-14 13:32:00,
2013-05-14 08:41:00,67.0,53.0,29.91,WSW,244,4.0,-999.0,60,-99.99,,,-99.99,,2013-05-14 13:41:00,
2013-05-14 08:52:00,67.0,53.0,29.91,WSW,244,4.0,-999.0,60,-99.99,,,-99.99,,2013-05-14 13:52:00,
2013-05-14 09:01:00,70.0,53.0,29.92,WNW,286,6.0,-999.0,55,-99.99,,,-99.99,,2013-05-14 14:01:00,
2013-05-14 09:11:00,71.0,54.0,29.91,WSW,248,5.0,-999.0,54,-99.99,,,-99.99,,2013-05-14 14:11:00,
2013-05-14 09:22:00,71.0,54.0,29.91,WSW,248,5.0,-999.0,54,-99.99,,,-99.99,,2013-05-14 14:22:00,
2013-05-14 09:31:00,72.0,54.0,29.91,WSW,253,6.0,-999.0,53,-99.99,,,-99.99,,2013-05-14 14:31:00,
2013-05-14 09:41:00,72.0,54.0,29.91,WSW,253,6.0,-999.0,53,-99.99,,,-99.99,,2013-05-14 14:41:00,
2013-05-14 09:52:00,73.0,54.0,29.91,SW,228,6.0,-999.0,52,-99.99,,,-99.99,,2013-05-14 14:52:00,
2013-05-14 10:01:00,74.0,54.0,29.91,WNW,291,5.0,-999.0,50,-99.99,,,-99.99,,2013-05-14 15:01:00,
2013-05-14 10:12:00,74.0,54.0,29.91,WNW,291,5.0,-999.0,50,-99.99,,,-99.99,,2013-05-14 15:12:00,
2013-05-14 10:21:00,74.0,55.0,29.91,West,260,6.0,-999.0,51,-99.99,,,-99.99,,2013-05-14 15:21:00,
2013-05-14 10:33:00,75.0,55.0,29.91,West,259,6.0,-999.0,50,-99.99,,,-99.99,,2013-05-14 15:33:00,
2013-05-14 10:43:00,75.0,56.0,29.91,WSW,258,6.0,-999.0,51,-99.99,,,-99.99,,2013-05-14 15:43:00,
2013-05-14 10:53:00,75.0,56.0,29.91,WSW,258,6.0,-999.0,51,-99.99,,,-99.99,,2013-05-14 15:53:00,
2013-05-14 11:02:00,76.0,57.0,29.91,West,260,5.0,-999.0,52,-99.99,,,-99.99,,2013-05-14 16:02:00,
2013-05-14 11:12:00,76.0,57.0,29.91,West,260,5.0,-999.0,52,-99.99,,,-99.99,,2013-05-14 16:12:00,
2013-05-14 11:23:00,77.0,56.0,29.92,South,187,6.0,-999.0,49,-99.99,,,-99.99,,2013-05-14 16:23:00,
2013-05-14 11:33:00,78.0,58.0,29.91,West,280,5.0,-999.0,50,-99.99,,,-99.99,,2013-05-14 16:33:00,
2013-05-14 11:43:00,78.0,58.0,29.91,West,280,5.0,-999.0,50,-99.99,,,-99.99,,2013-05-14 16:43:00,
2013-05-14 11:54:00,79.0,58.0,29.92,SW,223,5.0,-999.0,48,-99.99,,,-99.99,,2013-05-14 16:54:00,
2013-05-14 12:03:00,80.0,57.0,29.91,SW,230,4.0,-999.0,45,-99.99,,,-99.99,,2013-05-14 17:03:00,
2013-05-14 12:13:00,80.0,57.0,29.91,SW,230,4.0,-999.0,45,-99.99,,,-99.99,,2013-05-14 17:13:00,
2013-05-14 12:24:00,80.0,58.0,29.91,SW,236,5.0,-999.0,47,-99.99,,,-99.99,,2013-05-14 17:24:00,
2013-05-14 12:32:00,82.0,58.0,29.91,WSW,238,4.0,-999.0,44,-99.99,,,-99.99,,2013-05-14 17:32:00,
2013-05-14 12:43:00,82.0,58.0,29.91,WSW,238,4.0,-999.0,44,-99.99,,,-99.99,,2013-05-14 17:43:00,
2013-05-14 12:52:00,82.0,56.0,29.90,WSW,251,6.0,-999.0,41,-99.99,,,-99.99,,2013-05-14 17:52:00,
2013-05-14 13:02:00,83.0,57.0,29.89,West,262,5.0,-999.0,41,-99.99,,,-99.99,,2013-05-14 18:02:00,
2013-05-14 13:12:00,83.0,57.0,29.89,West,262,5.0,-999.0,41,-99.99,,,-99.99,,2013-05-14 18:12:00,
2013-05-14 13:22:00,84.0,57.0,29.89,WSW,254,5.0,-999.0,40,-99.99,,,-99.99,,2013-05-14 18:22:00,
2013-05-14 13:32:00,85.0,60.0,29.88,SSW,209,5.0,-999.0,43,-99.99,,,-99.99,,2013-05-14 18:32:00,
2013-05-14 13:42:00,85.0,60.0,29.88,SSW,209,5.0,-999.0,43,-99.99,,,-99.99,,2013-05-14 18:42:00,
2013-05-14 13:52:00,85.0,57.0,29.88,SSW,213,5.0,-999.0,39,-99.99,,,-99.99,,2013-05-14 18:52:00,
2013-05-14 14:01:00,85.0,57.0,29.88,SSE,165,6.0,-999.0,39,-99.99,,,-99.99,,2013-05-14 19:01:00,
2013-05-14 14:12:00,85.0,57.0,29.88,SSE,165,6.0,-999.0,39,-99.99,,,-99.99,,2013-05-14 19:12:00,
2013-05-14 14:22:00,85.0,57.0,29.87,WSW,237,6.0,-999.0,39,-99.99,,,-99.99,,2013-05-14 19:22:00,
2013-05-14 14:32:00,85.0,56.0,29.86,SSW,213,6.0,-999.0,37,-99.99,,,-99.99,,2013-05-14 19:32:00,
2013-05-14 14:42:00,85.0,56.0,29.86,SSW,213,6.0,-999.0,37,-99.99,,,-99.99,,2013-05-14 19:42:00,
2013-05-14 14:52:00,86.0,57.0,29.86,West,261,5.0,-999.0,37,-99.99,,,-99.99,,2013-05-14 19:52:00,
2013-05-14 15:02:00,86.0,57.0,29.86,WSW,238,5.0,-999.0,38,-99.99,,,-99.99,,2013-05-14 20:02:00,
2013-05-14 15:11:00,86.0,57.0,29.86,WSW,238,5.0,-999.0,38,-99.99,,,-99.99,,2013-05-14 20:11:00,
2013-05-14 15:23:00,86.0,55.0,29.86,WSW,248,6.0,-999.0,35,-99.99,,,-99.99,,2013-05-14 20:23:00,
2013-05-14 15:32:00,87.0,55.0,29.85,WSW,245,6.0,-999.0,34,-99.99,,,-99.99,,2013-05-14 20:32:00,
2013-05-14 15:44:00,87.0,55.0,29.85,WSW,245,6.0,-999.0,34,-99.99,,,-99.99,,2013-05-14 20:44:00,
2013-05-14 15:52:00,86.0,52.0,29.85,West,264,7.0,-999.0,31,-99.99,,,-99.99,,2013-05-14 20:52:00,
2013-05-14 16:03:00,87.0,54.0,29.84,SSW,207,5.0,-999.0,33,-99.99,,,-99.99,,2013-05-14 21:03:00,
2013-05-14 16:12:00,87.0,54.0,29.84,SSW,207,5.0,-999.0,33,-99.99,,,-99.99,,2013-05-14 21:12:00,
2013-05-14 16:23:00,86.0,54.0,29.84,WSW,246,8.0,-999.0,33,-99.99,,,-99.99,,2013-05-14 21:23:00,
2013-05-14 16:33:00,86.0,52.0,29.84,SW,229,7.0,-999.0,31,-99.99,,,-99.99,,2013-05-14 21:33:00,
2013-05-14 16:43:00,86.0,52.0,29.84,SW,229,7.0,-999.0,31,-99.99,,,-99.99,,2013-05-14 21:43:00,
2013-05-14 16:53:00,86.0,52.0,29.84,WSW,253,7.0,-999.0,31,-99.99,,,-99.99,,2013-05-14 21:53:00,
2013-05-14 17:03:00,86.0,54.0,29.83,SSW,208,7.0,-999.0,33,-99.99,,,-99.99,,2013-05-14 22:03:00,
2013-05-14 17:13:00,86.0,54.0,29.83,SSW,208,7.0,-999.0,33,-99.99,,,-99.99,,2013-05-14 22:13:00,
2013-05-14 17:24:00,86.0,54.0,29.83,WSW,242,7.0,-999.0,34,-99.99,,,-99.99,,2013-05-14 22:24:00,
2013-05-14 17:34:00,85.0,54.0,29.83,WSW,239,6.0,-999.0,35,-99.99,,,-99.99,,2013-05-14 22:34:00,
2013-05-14 17:45:00,85.0,54.0,29.83,WSW,239,6.0,-999.0,35,-99.99,,,-99.99,,2013-05-14 22:45:00,
2013-05-14 17:54:00,86.0,56.0,29.83,SW,232,4.0,-999.0,36,-99.99,,,-99.99,,2013-05-14 22:54:00,
2013-05-14 18:03:00,85.0,56.0,29.82,WSW,250,5.0,-999.0,37,-99.99,,,-99.99,,2013-05-14 23:03:00,
2013-05-14 18:12:00,85.0,56.0,29.82,WSW,250,5.0,-999.0,37,-99.99,,,-99.99,,2013-05-14 23:12:00,
2013-05-14 18:21:00,85.0,57.0,29.81,SSW,203,5.0,-999.0,38,-99.99,,,-99.99,,2013-05-14 23:21:00,
2013-05-14 18:31:00,84.0,54.0,29.81,SSW,206,5.0,-999.0,36,-99.99,,,-99.99,,2013-05-14 23:31:00,
2013-05-14 18:44:00,84.0,54.0,29.81,SSW,206,5.0,-999.0,36,-99.99,,,-99.99,,2013-05-14 23:44:00,
2013-05-14 18:52:00,84.0,54.0,29.80,SW,232,5.0,-999.0,36,-99.99,,,-99.99,,2013-05-14 23:52:00,
2013-05-14 19:02:00,84.0,56.0,29.80,SW,223,3.0,-999.0,38,-99.99,,,-99.99,,2013-05-15 00:02:00,
2013-05-14 19:11:00,84.0,56.0,29.80,SW,223,3.0,-999.0,38,-99.99,,,-99.99,,2013-05-15 00:11:00,
2013-05-14 19:21:00,83.0,57.0,29.80,SSW,202,4.0,-999.0,41,-99.99,,,-99.99,,2013-05-15 00:21:00,
2013-05-14 19:32:00,82.0,57.0,29.80,West,269,4.0,-999.0,42,-99.99,,,-99.99,,2013-05-15 00:32:00,
2013-05-14 19:42:00,82.0,57.0,29.80,West,269,4.0,-999.0,42,-99.99,,,-99.99,,2013-05-15 00:42:00,
2013-05-14 19:52:00,81.0,56.0,29.80,SSW,212,4.0,-999.0,43,-99.99,,,-99.99,,2013-05-15 00:52:00,
2013-05-14 20:01:00,80.0,55.0,29.80,SW,223,3.0,-999.0,42,-99.99,,,-99.99,,2013-05-15 01:01:00,
2013-05-14 20:11:00,80.0,55.0,29.80,SW,223,3.0,-999.0,42,-99.99,,,-99.99,,2013-05-15 01:11:00,
2013-05-14 20:21:00,78.0,54.0,29.80,SSW,204,2.0,-999.0,44,-99.99,,,-99.99,,2013-05-15 01:21:00,
2013-05-14 20:31:00,77.0,55.0,29.80,SW,214,1.0,-999.0,46,-99.99,,,-99.99,,2013-05-15 01:31:00,
2013-05-14 20:42:00,77.0,55.0,29.80,SW,214,1.0,-999.0,46,-99.99,,,-99.99,,2013-05-15 01:42:00,
2013-05-14 20:52:00,76.0,55.0,29.80,SW,214,0.0,-999.0,48,-99.99,,,-99.99,,2013-05-15 01:52:00,
2013-05-14 21:01:00,75.0,55.0,29.80,SW,214,0.0,-999.0,50,-99.99,,,-99.99,,2013-05-15 02:01:00,
2013-05-14 21:11:00,75.0,55.0,29.80,SW,214,0.0,-999.0,50,-99.99,,,-99.99,,2013-05-15 02:11:00,
2013-05-14 21:21:00,74.0,55.0,29.80,SW,214,1.0,-999.0,52,-99.99,,,-99.99,,2013-05-15 02:21:00,
2013-05-14 21:31:00,73.0,55.0,29.80,SW,214,0.0,-999.0,54,-99.99,,,-99.99,,2013-05-15 02:31:00,
2013-05-14 21:42:00,73.0,55.0,29.80,SW,214,0.0,-999.0,54,-99.99,,,-99.99,,2013-05-15 02:42:00,
2013-05-14 21:52:00,72.0,55.0,29.81,SW,214,1.0,-999.0,55,-99.99,,,-99.99,,2013-05-15 02:52:00,
2013-05-14 22:01:00,72.0,55.0,29.82,SW,214,1.0,-999.0,55,-99.99,,,-99.99,,2013-05-15 03:01:00,
2013-05-14 22:12:00,72.0,55.0,29.82,SW,214,1.0,-999.0,55,-99.99,,,-99.99,,2013-05-15 03:12:00,
2013-05-14 22:22:00,71.0,54.0,29.82,SSW,213,1.0,-999.0,56,-99.99,,,-99.99,,2013-05-15 03:22:00,
2013-05-14 22:33:00,71.0,54.0,29.83,SSW,213,2.0,-999.0,56,-99.99,,,-99.99,,2013-05-15 03:33:00,
2013-05-14 22:44:00,70.0,54.0,29.83,SSW,211,1.0,-999.0,56,-99.99,,,-99.99,,2013-05-15 03:44:00,
2013-05-14 22:54:00,70.0,54.0,29.83,SSW,211,1.0,-999.0,56,-99.99,,,-99.99,,2013-05-15 03:54:00,
2013-05-14 23:03:00,70.0,54.0,29.83,SSW,211,1.0,-999.0,57,-99.99,,,-99.99,,2013-05-15 04:03:00,
2013-05-14 23:12:00,70.0,54.0,29.83,SSW,211,1.0,-999.0,57,-99.99,,,-99.99,,2013-05-15 04:12:00,
2013-05-14 23:24:00,69.0,54.0,29.83,SSW,211,0.0,-999.0,58,-99.99,,,-99.99,,2013-05-15 04:24:00,
2013-05-14 23:33:00,69.0,54.0,29.83,SSW,207,2.0,-999.0,58,-99.99,,,-99.99,,2013-05-15 04:33:00,
2013-05-14 23:42:00,69.0,54.0,29.83,SSW,207,2.0,-999.0,58,-99.99,,,-99.99,,2013-05-15 04:42:00,
2013-05-14 23:52:00,69.0,53.0,29.84,SSW,207,2.0,-999.0,57,-99.99,,,-99.99,,2013-05-15 04:52:00,